C/2018 V2 ( ATLAS )

Japanese version
Home page
Updated on December 4, 2018

---------------------------------------------------------------------

* Profile

Discovery Date November 2, 2018
Magnitude 19.1 mag
Discoverer Asteroid Terrestrial-impact Last Alert System (ATLAS) search program

* Orbital Elements

Epoch 2018 Nov. 18.0 TT = JDT 2458440.5
T 2018 Nov. 26.97813 TT                                 MPCW
q   2.4749820            (2000.0)            P               Q
n   0.00757477     Peri.  318.65921     +0.78420097     +0.62018505
a  25.6777156      Node   356.78714     +0.62038566     -0.78300432
e   0.9036136      Incl.  159.11096     +0.01226710     -0.04769421
P 130
From 146 observations 2018 Oct. 18-Nov. 29, mean residual 0".5.

* Magnitudes Graph

        m1 = 14.2 + 5 log d + 10.0 log r

---------------------------------------------------------------------

The orbital elements are published on M.P.E.C. 2018-X10.
The magnitudes graphs are made with Comet for Windows.

---------------------------------------------------------------------

Copyright(C) Seiichi Yoshida (comet@aerith.net). All rights reserved.